Location: Nelson
(38.9945°N, 93.0321°W)
Time: 12:30:55
(UTC+00:00)

ISS - Visible Passes

Search period start: 23 June 2024 00:00
Search period end: 03 July 2024 00:00
Orbit: 410 x 425 km, 51.6° (Epoch: 23 June)

Date Brightness Start Highest point End Pass type
(mag) Time Alt. Az. Time Alt. Az. Time Alt. Az.
23 Jun -3.8 09:32:57 22° SW 09:34:58 80° SE 09:38:19 10° NE visible
24 Jun -3.2 08:46:40 41° SSE 08:46:57 42° SE 08:50:08 10° ENE visible
25 Jun -1.5 08:00:19 18° E 08:00:19 18° E 08:01:41 10° ENE visible
25 Jun -2.6 09:33:14 15° W 09:35:36 36° NNW 09:38:43 10° NE visible
26 Jun -3.5 08:46:47 49° W 08:47:23 60° NW 08:50:42 10° NE visible
27 Jun -2.6 08:00:16 40° ENE 08:00:16 40° ENE 08:02:32 10° NE visible
27 Jun -1.4 09:33:53 10° WNW 09:36:18 18° NNW 09:38:43 10° NNE visible
28 Jun -0.9 07:13:40 14° ENE 07:13:40 14° ENE 07:14:12 10° ENE visible
28 Jun -1.9 08:46:34 19° WNW 08:47:54 25° NNW 08:50:45 10° NNE visible
29 Jun -2.4 07:59:53 36° NNW 07:59:53 36° NNW 08:02:41 10° NE visible
29 Jun -0.9 09:35:43 10° NW 09:37:03 12° NNW 09:38:23 10° N visible
30 Jun -1.4 07:13:08 22° NE 07:13:08 22° NE 07:14:31 10° NE visible
30 Jun -1.0 08:46:34 10° NW 08:48:30 14° NNW 08:50:27 10° NNE visible
01 Jul -1.4 07:59:12 17° NW 07:59:58 19° NNW 08:02:25 10° NNE visible
02 Jul -1.4 07:12:17 23° N 07:12:17 23° N 07:14:19 10° NNE visible
02 Jul -0.5 08:48:29 10° NNW 08:49:07 10° N 08:49:43 10° N visible
